Zurück zum Katalog

STARLINK-4105

AktivKommunikationVLEO
NORAD 53168·PAYLOAD·🇺🇸 United States

Gestartet Jul 17, 2022 von Cape Canaveral Space Force Station

Loading…

Nächste Überflüge (nächste 24 Stunden)

TLE

AktuellSource: CelesTrak SupGP

Epoche: Sep 15, 2026, 02:22 UTC

1 53168C 22083AN  26258.09909722 -.00014114  00000+0 -42841-3 0  2581
2 53168  53.1606  28.8611 0001128  89.9912 139.2636 15.33545636    14

Verfolge STARLINK-4105 in Echtzeit mit AllMySat

Download on the App Store